Location: Palomar Mountain Lodge
(33.3110°N, 116.8495°W)
Time: 00:08:48
(UTC-07:00)

YAOGAN 6 - Pass Details

Date: 12 July 2018
Orbit: 466 x 507 km, 97.1° (Epoch: 24 September)

Event Time Altitude Azimuth Distance (km) Brightness Sun altitude
Rises 20:51:59 0° 187° (S) 2,480 5.9 -10.4°
Reaches altitude 10° 20:54:09 10° 197° (SSW) 1,610 5.0 -10.7°
Maximum altitude 20:57:17 32° 262° (W) 817 4.2 -11.3°
Drops below altitude 10° 21:00:28 10° 328° (NNW) 1,629 6.4 -11.8°
Sets 21:02:41 0° 338° (NNW) 2,515 7.3 -12.2°
